Location: Champseau
(45.8333°N, 1.7667°E)
Time: 04:51:32
(UTC+00:00)

SAR-Lupe-4 - Pass Details

Date: 18 April 2021
Orbit: 483 x 483 km, 98.2° (Epoch: 13 April)

Event Time Altitude Azimuth Distance (km) Brightness Sun altitude
Rises 19:18:55 0° 11° (NNE) 2,560 7.4 -6.6°
Reaches altitude 10° 19:21:00 10° 10° (N) 1,675 6.5 -6.9°
Maximum altitude 19:24:35 74° 285° (WNW) 509 3.8 -7.5°
Drops below altitude 10° 19:28:09 10° 201° (SSW) 1,660 6.2 -8.0°
Sets 19:30:12 0° 199° (SSW) 2,535 7.2 -8.4°
